Regional Weather Roundup
Issued by NWS Spokane, WA

Home | Current Version | Previous Version | Text Only | Print | Product List | Glossary On
Versions: 1 2 3 4 5 6 7 8 9 10 11 12 13 14 15 16 17 18 19 20 21 22 23 24 25 26 27 28 29 30 31 32 33 34 35 36 37 38 39 40 41 42 43 44 45 46 47 48 49 50
000
NZUS01 KOTX 191210
RWROTX
EASTERN WASHINGTON/NORTHERN IDAHO ROUNDUP
NATIONAL WEATHER SERVICE, SPOKANE WA
500 AM PDT FRI SEP 19 2014

Note: "fair" indicated few or no clouds below 12,000 feet with no
significant weather and/or obstructions to visibility.

...NORTHEAST WASHINGTON AND NORTHERN IDAHO PANHANDLE...

CITY           SKY/WX    TMP DP  RH WIND       PRES   REMARKS
SPOKANE INTL   PTCLDY    55  48  77 S9        29.95R
SPOKANE DOWNTO PTCLDY    58  48  69 SW10      29.97R
COEUR D ALENE  MOCLDY    55  46  71 MISG      29.96R
DEER PARK      CLOUDY    58  48  69 S9        29.95R
SANDPOINT      CLOUDY    59  48  67 SW8       29.92R

...SOUTHEAST WASHINGTON AND SOUTHERN IDAHO PANHANDLE...

CITY           SKY/WX    TMP DP  RH WIND       PRES   REMARKS
WALLA WALLA    CLEAR     63  50  62 S12       30.00R
PULLMAN/MOSCOW CLEAR     53  46  77 S7        30.02S
LEWISTON       MOCLDY    64  49  57 S5        29.98R
LOWELL           N/A     59  54  83 CALM      29.99R

...COLUMBIA BASIN...

CITY           SKY/WX    TMP DP  RH WIND       PRES   REMARKS
EPHRATA        MOCLDY    62  49  62 S9        29.91R
MOSES LAKE     PTCLDY    61  51  70 S6        29.93R
TRI CITIES     CLEAR     62  54  74 S9        29.95R
HERMISTON      CLEAR     63  51  65 SW9       29.97R
PENDLETON      CLEAR     60  49  66 S8        30.00R

...EAST SLOPES CASCADES...

CITY           SKY/WX    TMP DP  RH WIND       PRES   REMARKS
THE DALLES     CLEAR     64  54  69 W6        29.99R
YAKIMA         PTCLDY    52  46  80 W7        29.97R
ELLENSBURG     MOCLDY    61  50  67 NW15      29.97R
WENATCHEE      MOCLDY    68  49  50 W20       29.91S
OMAK           MOCLDY    57  50  77 W3        29.89R

...SOUTHERN BRITISH COLUMBIA...

CITY           SKY/WX    TMP DP  RH WIND       PRES   REMARKS
CRANBROOK      CLOUDY    55  48  76 S9        29.85R

...WESTERN MONTANA...

CITY           SKY/WX    TMP DP  RH WIND       PRES   REMARKS
MISSOULA       CLOUDY    63  46  54 W9        29.96R

...NEIGHBORING CITIES...

CITY           SKY/WX    TMP DP  RH WIND       PRES   REMARKS
SEATTLE        CLOUDY    62  57  83 S3        30.03R
CALGARY        MOCLDY    50  46  87 CALM      29.75R



USA.gov is the U.S. government's official web portal to all federal, state and local government web resources and services.